Regional Weather Roundup
Issued by NWS

Home | Current Version | Previous Version | Text Only | Print | Product List | Glossary Off
Versions: 1 2 3 4 5 6 7 8 9 10 11 12 13 14 15 16 17 18 19 20 21 22 23 24 25 26 27 28 29 30 31 32 33 34 35 36 37 38 39 40 41 42 43 44 45 46 47 48 49 50

000
ASUS43 KLMK 212102
RWRKY
KENTUCKY REGIONAL WEATHER ROUNDUP
NATIONAL WEATHER SERVICE LOUISVILLE KY
500 PM EDT SAT OCT 21 2017

NOTE "FAIR" INDICATES FEW OR NO CLOUDS BELOW 12,000 FEET
WITH NO SIGNIFICANT WEATHER AND/OR OBSTRUCTIONS TO VISIBILITY.

KYZ001>023-026-027-061>063-070>075-212200-
WESTERN AND SOUTH CENTRAL KENTUCKY

CITY           SKY/WX    TMP DP  RH WIND       PRES   REMARKS
PADUCAH        CLOUDY    79  54  41 S9        30.08S
HENDERSON      CLOUDY    76  56  49 S10       30.12F
OWENSBORO      SUNNY     76  54  46 S12       30.13F
HOPKINSVILLE   SUNNY     77  52  41 S3        30.16S
BOWLING GREEN  SUNNY     75  56  51 SE6       30.18F
GLASGOW        NOT AVBL
$$

KYZ024-025-028>034-038-045-046-053-212200-
NORTH CENTRAL KENTUCKY

CITY           SKY/WX    TMP DP  RH WIND       PRES   REMARKS
LOUISVILLE/SDF PTSUNNY   76  45  33 S9        30.18F
LOUISVILLE/LOU MOSUNNY   75  49  39 SE9       30.19F
FORT KNOX      CLOUDY    74  49  40 SE12      30.17F
$$

KYZ035>037-039>044-047>052-055>060-089>105-212200-
NORTHEAST KENTUCKY

CITY           SKY/WX    TMP DP  RH WIND       PRES   REMARKS
LEXINGTON      MOSUNNY   75  45  34 S10       30.23S
COVINGTON      CLOUDY    70  53  54 S6        30.21F
FRANKFORT      MOSUNNY   74  44  34 S5        30.20F
$$

KYZ054-064>069-076>088-106>120-212200-
SOUTHEAST KENTUCKY

CITY           SKY/WX    TMP DP  RH WIND       PRES   REMARKS
JACKSON        SUNNY     73  51  46 CALM      30.27S
LONDON         MOSUNNY   75  44  33 S7        30.25S
SOMERSET       NOT AVBL
MIDDLESBORO    SUNNY     76  51  41 CALM      30.26S
MONTICELLO     PTCLDY    75  49  39 E7        30.24F
$$





USA.gov is the U.S. government's official web portal to all federal, state and local government web resources and services.